Gaithersburg, MD

11:21 AM EDT on August 28, 2016 (GMT -0400)
Montgomery County

Weather History for KGAI - November, 2012

Change the Weather History Date:

Saturday, November 3, 2012

  Actual Average (KCGS) Record (KCGS)
Temperature  
Mean Temperature 42 °F -  
Max Temperature 46 °F 67 °F 84 °F (1971)
Min Temperature 35 °F 45 °F 27 °F (1959)
Degree Days  
Heating Degree Days 24    
Moisture  
Dew Point 29 °F    
Average Humidity 60    
Maximum Humidity 81    
Minimum Humidity 53    
Precipitation  
Precipitation 0.00 in - - ()
Sea Level Pressure  
Sea Level Pressure 30.02 in    
Wind  
Wind Speed 12 mph (NW)    
Max Wind Speed 18 mph    
Max Gust Speed 25 mph    
Visibility 10 miles    
Events      
Averages and records for this station are not official NWS values.
T = Trace of Precipitation, MM = Missing Value Source: NWS Daily Summary

Daily Weather History Graph

Daily Weather History Graph

Search for Another Location

Airport or City:

Trip Planner

Search our weather history database for the weather conditions in past years. The results will help you decide how hot, cold, wet, or windy it might be!

Date:

Astronomy

Nov. 03, 2012 Rise Set
Actual Time 7:39 AM EDT 6:04 PM EDT
Civil Twilight 7:11 AM EDT 6:32 PM EDT
Nautical Twilight 6:39 AM EDT 7:04 PM EDT
Astronomical Twilight 6:08 AM EDT 7:35 PM EDT
Moon 9:44 PM EDT (11/3) 11:41 AM EDT (11/3)
Length of Visible Light 11h 21m
Length of Day
10h 25m
Waning Gibbous, 80% of the Moon is Illuminated
Nov 3
Waning Gibbous
Nov 6
Last Quarter
Nov 13
New
Nov 20
First Quarter
Nov 28
Full

Hourly Weather History & Observations

Time (EDT) Temp. Windchill Dew Point Humidity Pressure Visibility Wind Dir Wind Speed Gust Speed Precip Events Conditions
12:15 AM 42.8 °F 35.4 °F 28.4 °F 57% 29.95 in 10.0 mi WNW 15.0 mph 20.7 mph N/A   Overcast
12:35 AM 42.8 °F 37.0 °F 28.4 °F 57% 29.95 in 10.0 mi WNW 10.4 mph 20.7 mph N/A   Overcast
12:55 AM 42.8 °F 38.0 °F 28.4 °F 57% 29.95 in 10.0 mi WNW 8.1 mph - N/A   Overcast
1:15 AM 42.8 °F 35.8 °F 28.4 °F 57% 29.95 in 10.0 mi NW 13.8 mph - N/A   Overcast
1:35 AM 42.8 °F 36.2 °F 28.4 °F 57% 29.95 in 10.0 mi WNW 12.7 mph 18.4 mph N/A   Overcast
1:55 AM 42.8 °F 37.5 °F 28.4 °F 57% 29.95 in 10.0 mi NW 9.2 mph - N/A   Overcast
2:15 AM 42.8 °F 36.2 °F 28.4 °F 57% 29.95 in 10.0 mi NW 12.7 mph 21.9 mph N/A   Overcast
2:35 AM 42.8 °F 36.6 °F 28.4 °F 57% 29.96 in 10.0 mi WNW 11.5 mph 20.7 mph N/A   Overcast
2:55 AM 42.8 °F 36.6 °F 28.4 °F 57% 29.96 in 10.0 mi WNW 11.5 mph - N/A   Overcast
3:15 AM 42.8 °F 35.1 °F 28.4 °F 57% 29.96 in 10.0 mi NW 16.1 mph 23.0 mph N/A   Overcast
3:35 AM 42.8 °F 36.6 °F 28.4 °F 57% 29.95 in 10.0 mi WNW 11.5 mph 24.2 mph N/A   Overcast
3:55 AM 42.8 °F 37.5 °F 28.4 °F 57% 29.96 in 10.0 mi NW 9.2 mph - N/A   Overcast
4:15 AM 42.8 °F 37.0 °F 28.4 °F 57% 29.96 in 10.0 mi WNW 10.4 mph 17.3 mph N/A   Overcast
4:35 AM 41.0 °F 34.7 °F 28.4 °F 61% 29.96 in 10.0 mi NW 10.4 mph - N/A   Overcast
4:55 AM 41.0 °F 33.1 °F 28.4 °F 61% 29.96 in 10.0 mi NW 15.0 mph - N/A   Overcast
5:15 AM 41.0 °F 35.2 °F 28.4 °F 61% 29.96 in 10.0 mi NW 9.2 mph - N/A   Overcast
5:35 AM 41.0 °F 32.2 °F 26.6 °F 57% 29.97 in 10.0 mi WNW 18.4 mph 25.3 mph N/A   Overcast
5:55 AM 41.0 °F 33.5 °F 26.6 °F 57% 29.98 in 10.0 mi NW 13.8 mph - N/A   Overcast
6:15 AM 41.0 °F 33.5 °F 26.6 °F 57% 29.99 in 10.0 mi NW 13.8 mph 20.7 mph N/A   Overcast
6:35 AM 41.0 °F 35.2 °F 28.4 °F 61% 30.00 in 10.0 mi NW 9.2 mph 17.3 mph N/A   Overcast
6:55 AM 41.0 °F 33.9 °F 28.4 °F 61% 30.00 in 10.0 mi NW 12.7 mph - N/A   Overcast
7:15 AM 41.0 °F 33.1 °F 26.6 °F 57% 30.00 in 10.0 mi NW 15.0 mph 20.7 mph N/A   Overcast
7:35 AM 41.0 °F 33.5 °F 28.4 °F 61% 30.02 in 10.0 mi NW 13.8 mph - N/A   Overcast
7:55 AM 41.0 °F 33.9 °F 28.4 °F 61% 30.02 in 10.0 mi NW 12.7 mph 18.4 mph N/A   Overcast
8:15 AM 41.0 °F 35.8 °F 28.4 °F 61% 30.03 in 10.0 mi NW 8.1 mph - N/A   Overcast
8:35 AM 41.0 °F 34.3 °F 28.4 °F 61% 30.04 in 10.0 mi NW 11.5 mph - N/A   Overcast
8:55 AM 41.0 °F 33.9 °F 28.4 °F 61% 30.04 in 10.0 mi NW 12.7 mph 17.3 mph N/A   Overcast
9:15 AM 42.8 °F 36.2 °F 28.4 °F 57% 30.04 in 10.0 mi NW 12.7 mph - N/A   Overcast
9:35 AM 42.8 °F 35.8 °F 28.4 °F 57% 30.05 in 10.0 mi NW 13.8 mph - N/A   Overcast
9:55 AM 42.8 °F 36.2 °F 30.2 °F 61% 30.04 in 10.0 mi NW 12.7 mph 18.4 mph N/A   Overcast
10:15 AM 42.8 °F 35.4 °F 30.2 °F 61% 30.04 in 10.0 mi NW 15.0 mph 18.4 mph N/A   Overcast
10:35 AM 42.8 °F 35.4 °F 30.2 °F 61% 30.04 in 10.0 mi NW 15.0 mph 21.9 mph N/A   Overcast
10:55 AM 46.4 °F 40.7 °F 30.2 °F 53% 30.04 in 10.0 mi NW 12.7 mph 20.7 mph N/A   Overcast
11:15 AM 44.6 °F 38.4 °F 30.2 °F 57% 30.04 in 10.0 mi NW 12.7 mph 20.7 mph N/A   Overcast
11:35 AM 44.6 °F 38.8 °F 30.2 °F 57% 30.04 in 10.0 mi NW 11.5 mph - N/A   Overcast
11:55 AM 44.6 °F 38.8 °F 28.4 °F 53% 30.04 in 10.0 mi NW 11.5 mph 19.6 mph N/A   Overcast
12:15 PM 44.6 °F 38.1 °F 28.4 °F 53% 30.04 in 10.0 mi NW 13.8 mph 20.7 mph N/A   Overcast
12:35 PM 44.6 °F 37.8 °F 28.4 °F 53% 30.04 in 10.0 mi NNW 15.0 mph 19.6 mph N/A   Overcast
12:55 PM 44.6 °F 38.8 °F 30.2 °F 57% 30.04 in 10.0 mi North 11.5 mph 18.4 mph N/A   Overcast
1:15 PM 44.6 °F 38.1 °F 30.2 °F 57% 30.04 in 10.0 mi NW 13.8 mph 20.7 mph N/A   Overcast
1:35 PM 44.6 °F 37.8 °F 28.4 °F 53% 30.04 in 10.0 mi NW 15.0 mph 19.6 mph N/A   Overcast
1:55 PM 44.6 °F 38.1 °F 28.4 °F 53% 30.04 in 10.0 mi NW 13.8 mph 19.6 mph N/A   Overcast
2:15 PM 44.6 °F 40.2 °F 30.2 °F 57% 30.04 in 10.0 mi NW 8.1 mph - N/A   Overcast
2:35 PM 44.6 °F 37.2 °F 30.2 °F 57% 30.04 in 10.0 mi NW 17.3 mph - N/A   Overcast
2:55 PM 44.6 °F 38.8 °F 30.2 °F 57% 30.03 in 10.0 mi NW 11.5 mph 20.7 mph N/A   Overcast
3:15 PM 44.6 °F 37.8 °F 28.4 °F 53% 30.03 in 10.0 mi NW 15.0 mph 21.9 mph N/A   Overcast
3:35 PM 44.6 °F 37.8 °F 30.2 °F 57% 30.03 in 10.0 mi NW 15.0 mph 19.6 mph N/A   Overcast
3:55 PM 44.6 °F 38.4 °F 30.2 °F 57% 30.04 in 10.0 mi NW 12.7 mph 21.9 mph N/A   Overcast
4:15 PM 44.6 °F 39.7 °F 28.4 °F 53% 30.04 in 10.0 mi NNW 9.2 mph 20.7 mph N/A   Overcast
4:35 PM 44.6 °F 38.4 °F 30.2 °F 57% 30.04 in 10.0 mi NNW 12.7 mph 18.4 mph N/A   Overcast
4:55 PM 44.6 °F 39.7 °F 30.2 °F 57% 30.04 in 10.0 mi NNW 9.2 mph - N/A   Overcast
5:15 PM 44.6 °F 39.7 °F 30.2 °F 57% 30.05 in 10.0 mi NW 9.2 mph - N/A   Overcast
5:35 PM 44.6 °F 38.1 °F 30.2 °F 57% 30.05 in 10.0 mi NW 13.8 mph 19.6 mph N/A   Overcast
5:55 PM 44.6 °F 39.2 °F 30.2 °F 57% 30.04 in 10.0 mi NW 10.4 mph - N/A   Overcast
6:15 PM 42.8 °F 38.0 °F 30.2 °F 61% 30.05 in 10.0 mi NW 8.1 mph 18.4 mph N/A   Overcast
6:35 PM 44.6 °F 40.2 °F 30.2 °F 57% 30.05 in 10.0 mi NW 8.1 mph - N/A   Overcast
6:55 PM 44.6 °F 38.8 °F 30.2 °F 57% 30.05 in 10.0 mi NW 11.5 mph - N/A   Overcast
7:15 PM 42.8 °F 37.5 °F 30.2 °F 61% 30.06 in 10.0 mi NW 9.2 mph - N/A   Overcast
7:35 PM 42.8 °F 39.3 °F 30.2 °F 61% 30.06 in 10.0 mi NNW 5.8 mph - N/A   Mostly Cloudy
7:55 PM 42.8 °F 41.1 °F 30.2 °F 61% 30.06 in 10.0 mi NNW 3.5 mph - N/A   Overcast
8:15 PM 41.0 °F 36.4 °F 30.2 °F 65% 30.06 in 10.0 mi NNW 6.9 mph - N/A   Mostly Cloudy
8:35 PM 41.0 °F 37.1 °F 30.2 °F 65% 30.07 in 10.0 mi NW 5.8 mph - N/A   Mostly Cloudy
8:55 PM 41.0 °F 37.1 °F 30.2 °F 65% 30.07 in 10.0 mi NW 5.8 mph - N/A   Mostly Cloudy
9:15 PM 39.2 °F 35.9 °F 30.2 °F 70% 30.08 in 10.0 mi NW 4.6 mph - N/A   Partly Cloudy
9:35 PM 37.4 °F 33.8 °F 30.2 °F 75% 30.08 in 10.0 mi WNW 4.6 mph - N/A   Clear
9:55 PM 39.2 °F 34.2 °F 30.2 °F 70% 30.08 in 10.0 mi NNW 6.9 mph - N/A   Scattered Clouds
10:15 PM 39.2 °F 35.9 °F 30.2 °F 70% 30.09 in 10.0 mi NNW 4.6 mph - N/A   Mostly Cloudy
10:35 PM 37.4 °F 33.8 °F 28.4 °F 70% 30.09 in 10.0 mi NW 4.6 mph - N/A   Scattered Clouds
10:55 PM 37.4 °F - 28.4 °F 70% 30.09 in 10.0 mi Calm Calm - N/A   Mostly Cloudy
11:15 PM 37.4 °F 32.8 °F 30.2 °F 75% 30.09 in 10.0 mi NW 5.8 mph - N/A   Mostly Cloudy
11:35 PM 37.4 °F - 30.2 °F 75% 30.10 in 10.0 mi Calm Calm - N/A   Mostly Cloudy
11:55 PM 35.6 °F 32.8 °F 30.2 °F 81% 30.09 in 10.0 mi NNW 3.5 mph - N/A   Mostly Cloudy